This is the latest recevied weather packets stored in our database for station/object OE-2100. If no packets are shown the sender has not sent any weather packets the latest 10 day(s).
| Time | Temp. | Humidity | Pressure | Rain* | Wind** | Luminosity | Snow |
|---|---|---|---|---|---|---|---|
| 1788100868 | 25.56° C | 51% | 1012.6 hPa | - | - | - | - |
| 1788099068 | 25.56° C | 51% | 1013.6 hPa | - | - | - | - |
| 1788097268 | 25.56° C | 50% | 1013.6 hPa | - | - | - | - |
| 1788095468 | 25.56° C | 49% | 1013.6 hPa | - | - | - | - |
| 1788093668 | 25.56° C | 49% | 1014.6 hPa | - | - | - | - |
| 1788091868 | 25.56° C | 48% | 1014.6 hPa | - | - | - | - |
| 1788090068 | 25° C | 49% | 1014.8 hPa | - | - | - | - |
| 1788088268 | 25.56° C | 50% | 1014.7 hPa | - | - | - | - |
| 1788086468 | 25° C | 51% | 1015.9 hPa | - | - | - | - |
| 1788084668 | 25° C | 51% | 1015.9 hPa | - | - | - | - |
| 1788082868 | 23.33° C | 52% | 1016.3 hPa | - | - | - | - |
| 1788081068 | 22.78° C | 60% | 1016.4 hPa | - | - | - | - |
| 1788079268 | 21.67° C | 64% | 1016.7 hPa | - | - | - | - |
| 1788077467 | 21.11° C | 67% | 1016.8 hPa | - | - | - | - |
| 1788075668 | 19.44° C | 71% | 1017.3 hPa | - | - | - | - |
| 1788073868 | 18.89° C | 73% | 1017.4 hPa | - | - | - | - |
| 1788072068 | 17.78° C | 76% | 1017.8 hPa | - | - | - | - |
| 1788070268 | 17.78° C | 74% | 1017.7 hPa | - | - | - | - |
| 1788068468 | 16.67° C | 71% | 1018 hPa | - | - | - | - |
| 1788066668 | 16.67° C | 70% | 1018 hPa | - | - | - | - |
| 1788064867 | 16.67° C | 72% | 1018 hPa | - | - | - | - |
* Rain since midnight (hover to see other rain measurements)
** Current wind speed in m/s (hover to see current wind gust speed)